STARLINK-37045, 68074

Orbit data source: Space-Track

STARLINK-37045, 68074 is a payload satellite owned by SpaceX/Seattle (US) in LEO that was launched on Wed, 04 Mar 2026 UTC via an FALCON 9 launch vehicle from the Air Force Eastern Test Range (AFETR). Payload-class satellites include a variety of spacecraft equipped with specific instruments for various scientific and technological missions. These include communications satellites like Starlink; space stations such as the ISS; scientific satellites like the Hubble; Earth observation satellites from companies like Planet Labs, Umbra, and HawkEye 360; GPS; miniature CubeSats for education and research; and military/defense satellites.

Loading next visibility...
Identifier
68074, 2026-042F
Orbit
LEO
Country
Flag of USUS
Related business
Manufacturer
SpaceX/Seattle
Mission
Operational spacecraft
Bus & Motor
STARLINK V2MO, Unknown motor
Mass
575 kg wet, ~530 kg dry
Launch date (UTC)
2026-03-04 (1 month ago)
Launch vehicle
FALCON 9
Launch site
Air Force Eastern Test Range (AFETR)
Object type
Payload
Rocket body
Debris
Shape & HBR
Unknown shape, 17.7 m
Radar Cross Section
RCS unknown

Expand to show TLE details & history
Last TLE update: 12 hours ago

TLE from 12 hours ago
0 STARLINK-37045
1 68074U 26042F   26102.08822324  .00183736  00000-0  11754-2 0  9997
2 68074  53.1596  28.2716 0001489  74.9679 285.1507 15.75268891  7351
Epoch: 2026-04-12T02:07Z
TLE epoch observation values (Epoch: 2026-04-12T02:07:02.487Z)
Latitude
0.00003°
Longitude
156.21306°
Altitude
344.522 km
Speed
7.704 km/s
True Right ascension
01h 53m 05s
True Declination
0° 00' 00"
Sunlit
Object was in daylight at epoch
Visualization orbit readout
Latitude
Unknown
Longitude
Unknown
Altitude
Unknown
Speed
Unknown
Apparent Right ascension
Unknown
Apparent Declination
Unknown
Sunlit
N/A
Visualization observer readout
Local Sidereal Time
20:35:03
Azimuth
Unknown
Elevation
Unknown
Doppler factor
Unknown
Orbital elements
Apogee altitude
345.128 km
Perigee altitude
343.127 km
Semi-major axis
6,722.264 km
Eccentricity
0.00015
Inclination
53.1596°
RAAN
28.2716°
Arg. of periapsis
74.9679°
True anomaly
285.13423°
Mean anomaly
285.1507°
Eccentric anomaly
285.14246°
Mean motion
3.93795 °/min
Orbital period
91.42 mins
BSTAR
0.0011754
Loading maneuver chart data...
Computing Atmospheric mass density...
Loading historical data...
Loading historical data...
Loading historical data...
Loading historical data...
Loading historical data...
Loading historical data...
Loading historical data...

Documentation

Showing up to 5 results
|